Wind_Speed
5 4 3 3 3 4 6 7 8 10 11 11 10 8 8 8 7 6 6 6 7 8 9 9 10 10 10 11 11 11 11 12 12 11 11 11 11 12 14 16 17 17 17 16 15 15 15 15 14
5 3 2 1 2 3 5 7 9 9 9 9 10 9 9 9 7 6 5 6 7 7 8 8 9 10 10 11 11 11 11 11 12 11 10 10 10 11 12 14 15 15 15 14 13 12 12 13 13
7 5 3 2 2 1 4 7 9 8 8 8 9 8 8 7 7 6 5 6 6 7 7 8 8 9 10 10 10 10 11 11 11 11 10 9 10 10 11 12 13 13 13 12 11 10 9 10 11
9 8 6 4 2 0 4 7 8 8 7 7 7 7 7 7 7 7 7 7 7 8 8 8 9 9 9 10 9 10 10 10 10 10 10 10 10 10 11 11 12 12 12 11 10 8 7 7 7
11 11 9 6 3 2 3 6 7 7 7 6 5 6 7 7 8 9 9 9 9 10 10 10 10 10 10 9 9 9 9 10 10 10 10 10 10 10 10 10 11 11 11 11 10 8 7 6 5
14 13 11 8 6 5 5 5 5 5 4 3 3 4 6 7 8 9 9 10 10 11 11 11 11 11 10 10 9 9 9 10 10 11 10 10 10 10 10 10 10 10 10 10 10 9 8 7 7
16 15 13 11 9 8 7 6 3 1 2 1 3 4 5 6 7 8 9 9 10 11 11 12 12 12 11 11 10 10 10 10 11 11 11 11 10 10 10 9 9 10 10 10 10 10 10 9 9
18 17 16 13 11 9 8 7 5 3 1 1 2 4 5 6 8 9 9 9 10 11 11 12 12 12 12 12 12 12 12 12 12 12 12 12 12 11 11 10 10 10 10 11 11 11 11 11 11
20 20 18 15 12 10 9 8 6 5 3 1 2 4 6 7 9 11 11 12 12 12 12 12 12 13 14 15 15 15 15 15 15 14 14 14 14 14 14 13 13 13 13 13 13 13 13 13 13
22 22 20 17 13 11 9 8 7 6 5 5 5 6 7 9 11 13 14 15 15 15 15 16 16 17 17 18 18 18 18 18 18 18 17 17 17 17 17 17 17 17 17 17 17 17 16 16 16
23 24 22 19 15 13 11 10 9 9 10 10 10 11 12 13 15 17 18 18 19 19 19 20 20 21 22 22 23 23 23 22 22 22 21 21 21 21 21 22 22 22 22 22 22 21 21 20 20
23 25 23 20 17 15 14 14 13 13 14 16 16 17 18 19 20 21 21 21 21 21 22 22 23 25 25 26 27 28 28 28 28 27 26 26 25 25 26 26 26 27 27 27 27 27 26 25 24
23 24 23 21 20 19 18 18 17 18 20 20 21 22 24 25 25 24 23 22 22 22 23 25 27 28 29 30 30 31 32 33 34 33 31 31 30 30 30 30 30 31 31 31 32 32 31 30 29
24 23 23 24 25 24 23 22 22 22 24 25 25 26 28 29 27 25 24 24 23 24 25 27 28 29 30 31 32 31 33 34 35 36 36 36 35 34 34 34 34 34 35 36 36 36 36 35 34
27 26 25 26 27 27 26 26 26 27 28 29 29 30 31 30 28 26 25 25 26 26 27 27 28 29 29 31 31 31 33 35 34 36 38 38 38 38 38 38 37 38 39 39 40 40 41 41 39
31 30 30 31 30 30 29 29 30 31 32 32 32 32 32 31 28 27 27 27 27 27 28 28 28 28 30 31 30 31 33 34 34 35 37 38 39 40 40 41 41 42 42 42 43 44 44 44 43
34 34 34 34 34 33 33 34 34 35 35 35 34 33 32 30 28 28 27 28 28 29 29 29 29 29 31 31 31 31 33 34 34 35 37 39 41 41 41 42 42 42 42 43 43 45 44 44 43
35 36 37 37 37 36 36 37 37 37 37 36 34 32 30 28 28 28 28 29 29 30 30 30 30 30 31 31 32 33 34 35 34 35 36 36 37 39 40 41 41 42 43 43 44 43 44 42 40
34 35 36 36 37 37 38 38 37 37 36 34 32 29 28 27 29 30 30 30 29 30 30 31 32 31 31 32 32 33 33 34 34 35 36 37 37 39 40 41 42 43 43 43 44 44 43 42 41
30 32 33 34 34 34 35 36 35 35 34 32 30 29 29 30 31 31 30 29 30 30 31 32 32 33 33 33 34 34 34 34 35 35 36 37 37 38 40 41 42 42 42 42 43 43 43 42 41
26 28 30 31 31 32 33 33 33 33 33 32 32 32 32 32 31 31 30 29 29 29 30 32 33 34 34 35 36 36 36 35 35 35 36 37 38 38 39 40 40 41 41 40 40 40 40 38 36
22 24 26 27 28 29 30 32 31 32 33 34 34 33 33 31 30 30 28 27 28 29 31 32 33 33 34 34 33 33 34 34 35 35 36 37 38 38 38 39 39 40 40 39 37 36 35 34 32
19 21 22 23 24 26 28 31 31 31 33 33 33 31 29 27 26 26 25 26 28 29 31 31 31 31 30 29 29 29 30 32 34 35 36 37 38 38 38 39 39 39 39 38 37 36 35 33 32
17 19 20 21 22 23 25 27 27 27 27 27 28 26 25 23 24 24 24 26 28 29 30 30 30 29 27 27 28 28 30 32 33 34 35 37 37 38 38 39 39 40 40 40 40 39 38 37 36
14 16 17 17 18 19 21 22 22 22 22 22 22 22 21 22 22 23 24 25 27 29 30 29 28 28 28 29 30 30 31 32 33 34 35 36 36 37 37 38 39 40 41 41 42 42 41 40 39
14 14 15 15 16 17 18 20 20 21 21 21 21 22 22 22 22 22 24 26 28 29 30 29 29 30 30 31 32 33 34 35 35 35 36 36 36 36 36 36 37 39 40 41 42 42 42 42 41
15 15 15 16 16 16 17 19 20 21 21 21 21 22 22 22 23 24 26 28 29 30 30 31 32 32 33 34 35 36 36 36 37 37 37 37 36 36 36 35 35 36 37 39 40 41 42 42 42
15 15 16 17 19 19 18 19 20 20 21 22 22 23 24 25 26 27 29 30 32 32 33 34 35 35 36 37 37 38 38 37 37 37 37 37 36 36 36 35 34 34 34 35 37 38 39 40 40
14 14 15 17 20 21 20 20 21 22 24 25 26 27 28 29 30 32 33 35 36 37 38 39 39 40 40 39 39 39 39 39 39 38 38 37 37 37 36 35 34 33 32 32 33 34 35 36 36
14 15 17 19 20 22 24 25 23 25 27 29 30 31 33 34 35 36 38 39 41 43 44 44 44 44 44 43 42 42 41 41 40 40 39 37 37 37 36 35 33 31 30 30 30 30 31 31 31
Wind_Direction
149 144 130 88 71 73 76 83 89 87 85 90 97 99 89 80 80 76 72 64 53 41 30 21 17 17 18 21 22 23 24 25 26 27 27 25 23 21 21 19 18 18 18 20 24 28 32 35 37
181 183 171 88 62 88 92 95 88 82 79 81 82 80 77 73 68 61 63 55 42 32 22 14 11 12 12 13 12 11 11 13 13 13 12 10 9 9 9 10 11 12 13 14 17 22 28 32 35
205 213 226 282 349 71 113 111 103 96 86 76 68 60 56 52 42 31 27 26 22 12 3 358 359 2 3 4 3 2 2 2 2 2 359 356 354 355 357 1 4 6 7 7 9 12 19 25 30
218 226 235 250 300 286 150 129 120 110 96 81 65 48 34 27 17 5 359 359 356 350 341 339 340 344 348 352 353 352 351 351 350 349 347 345 344 345 348 353 357 360 0 360 359 359 2 10 18
224 229 229 233 256 253 188 157 141 125 101 83 62 39 19 9 360 351 345 342 338 332 327 326 327 330 332 335 338 340 340 339 337 337 337 337 336 338 340 345 349 351 352 351 350 346 342 342 347
229 233 235 235 245 244 236 201 162 137 108 85 48 28 7 358 351 345 340 337 333 328 325 325 325 324 324 323 324 326 327 327 326 326 327 328 328 329 331 335 339 341 343 342 341 338 330 322 318
230 235 238 240 245 250 249 241 227 133 121 74 16 1 349 340 338 335 333 332 330 328 328 329 326 322 319 317 314 313 313 312 312 313 315 315 316 317 319 323 327 330 331 331 330 327 322 314 306
231 236 239 240 245 253 253 255 256 228 184 38 5 4 348 336 332 328 326 325 326 325 325 326 324 320 317 313 310 307 305 304 303 303 304 304 303 304 306 308 311 313 312 313 313 312 310 308 303
228 234 238 241 242 250 256 261 254 235 229 284 340 349 342 327 323 320 317 315 314 314 315 316 314 312 310 308 304 302 301 300 298 296 295 295 294 294 294 295 297 298 297 297 298 298 297 297 297
224 229 237 241 243 249 264 273 265 255 264 282 302 319 324 316 312 310 309 307 305 304 302 301 300 300 299 298 296 294 294 294 293 291 289 288 286 286 286 287 288 288 287 287 287 287 288 288 288
224 227 236 242 245 253 265 276 276 281 288 293 300 306 311 310 307 306 304 304 302 300 298 295 293 292 291 290 289 288 286 285 285 284 283 281 279 279 279 280 282 282 282 281 281 281 280 280 280
226 229 236 243 249 256 268 278 286 291 292 296 302 307 307 306 304 304 302 300 298 297 295 294 293 291 289 286 285 284 282 280 277 276 275 274 273 273 274 275 277 277 278 278 278 277 276 275 274
229 233 240 247 253 259 267 275 282 288 291 297 301 303 302 302 302 302 300 298 296 294 292 291 291 290 289 287 286 284 281 279 276 272 270 269 268 269 269 270 271 273 274 274 274 274 273 271 269
231 233 239 245 251 256 262 269 276 281 286 290 293 294 296 297 299 299 299 298 297 295 293 292 292 293 292 291 291 287 284 282 277 272 269 267 265 265 265 266 267 269 270 271 271 271 269 267 266
236 236 238 241 246 253 260 265 271 276 280 284 287 289 291 292 294 297 299 300 300 298 296 295 294 294 294 295 296 292 291 287 282 274 270 269 266 264 264 265 265 266 268 269 269 269 267 266 264
238 240 242 245 249 253 258 263 268 273 277 280 283 285 287 288 292 296 300 302 302 301 300 298 296 295 295 297 299 298 297 295 292 284 277 273 269 266 265 264 265 266 269 271 272 273 272 270 269
238 241 245 248 252 255 258 262 266 270 274 277 280 282 284 287 293 296 299 301 301 300 298 298 297 297 299 301 303 303 301 300 298 291 285 280 274 269 268 268 267 267 269 272 274 275 275 275 274
238 242 246 249 253 256 259 262 265 268 271 273 275 277 281 287 293 295 297 298 298 297 298 298 298 299 302 305 306 306 305 304 300 295 290 287 282 278 276 274 272 271 272 273 275 278 278 279 278
239 243 247 250 253 255 258 260 263 265 267 269 271 274 278 284 289 292 293 293 294 295 298 299 300 303 307 310 311 310 308 305 302 298 294 290 287 283 280 278 277 276 274 275 274 278 280 280 282
238 242 246 248 249 251 254 256 260 262 264 267 269 274 278 283 287 289 288 289 291 293 297 300 304 309 312 314 314 313 311 308 305 301 297 293 289 285 281 279 278 277 276 275 276 277 279 280 281
239 242 245 247 249 251 253 255 257 261 265 268 273 276 279 283 284 285 286 286 288 292 297 302 306 311 314 315 316 316 315 312 309 305 301 295 290 285 281 279 277 277 277 277 277 277 278 279 279
246 248 250 252 254 253 256 256 257 262 266 270 274 276 278 280 280 282 282 282 287 292 297 301 305 309 311 313 315 316 317 317 315 311 306 300 294 289 284 280 278 277 277 276 276 276 277 277 277
257 258 259 260 260 260 260 261 263 265 268 271 274 276 278 277 276 276 278 284 288 292 295 299 302 304 307 310 313 317 318 318 317 315 311 305 298 292 287 282 279 276 274 274 273 273 275 276 276
265 267 269 269 268 266 265 267 269 269 271 272 274 275 274 273 273 274 279 284 287 289 291 294 296 298 301 306 312 317 319 320 319 318 316 312 305 297 290 284 279 276 274 272 271 271 273 273 274
273 275 276 276 274 271 271 271 272 272 272 271 271 270 270 272 274 276 279 280 281 282 284 287 291 295 299 304 310 314 318 320 321 321 320 317 311 305 297 290 283 277 274 272 270 270 271 272 272
276 279 280 280 277 273 273 273 275 274 273 272 271 271 273 275 275 275 275 275 275 277 280 286 291 297 301 305 309 313 316 318 319 321 321 320 316 311 305 298 289 282 276 273 271 270 270 270 271
280 281 284 284 283 278 277 278 277 280 281 279 278 277 278 279 279 278 276 275 276 279 284 290 296 300 304 306 308 310 312 314 316 319 320 320 318 315 310 304 297 288 281 276 273 271 271 270 271
289 288 287 288 289 288 286 283 282 283 285 286 285 285 285 286 285 283 281 282 284 287 291 295 299 302 304 305 307 307 309 310 312 315 317 318 318 317 313 308 303 295 287 281 277 274 272 271 270
294 292 291 290 291 293 292 288 290 289 290 290 290 289 287 286 285 284 285 287 290 293 296 299 301 302 303 303 305 305 306 307 309 311 314 315 317 317 315 312 306 300 292 286 282 278 274 272 269
301 297 295 294 295 296 297 297 296 293 292 291 291 289 288 287 286 287 289 291 294 296 298 300 301 301 302 303 303 304 304 305 306 308 309 312 314 315 315 314 310 304 297 293 287 282 277 273 269
Height
5917 5917 5917 5918 5918 5917 5916 5916 5915 5915 5916 5916 5916 5916 5917 5918 5920 5922 5920 5918 5918 5918 5917 5917 5916 5916 5914 5913 5913 5912 5912 5911 5911 5910 5910 5909 5909 5909 5908 5907 5906 5905 5904 5903 5902 5901 5900 5899 5898
5918 5918 5919 5920 5919 5918 5918 5917 5917 5917 5917 5917 5917 5918 5918 5919 5919 5920 5919 5919 5918 5918 5918 5917 5916 5915 5914 5914 5913 5912 5912 5911 5911 5910 5910 5910 5909 5909 5908 5907 5906 5905 5904 5903 5902 5901 5900 5899 5898
5918 5919 5920 5920 5920 5920 5920 5919 5918 5918 5918 5918 5918 5918 5919 5920 5920 5920 5920 5919 5919 5918 5918 5917 5916 5915 5914 5913 5913 5912 5911 5911 5910 5910 5909 5909 5909 5908 5908 5907 5906 5905 5904 5903 5902 5901 5901 5900 5899
5918 5919 5920 5921 5920 5920 5921 5920 5920 5920 5920 5919 5919 5919 5920 5920 5920 5920 5920 5919 5919 5918 5918 5917 5915 5914 5913 5913 5912 5911 5911 5910 5910 5909 5909 5908 5908 5907 5907 5906 5905 5904 5903 5902 5901 5901 5900 5899 5898
5917 5918 5919 5919 5919 5920 5921 5920 5920 5920 5920 5920 5920 5920 5920 5920 5920 5920 5919 5919 5918 5918 5917 5916 5915 5913 5912 5912 5911 5910 5909 5909 5908 5908 5907 5907 5906 5906 5905 5904 5903 5902 5902 5901 5900 5899 5899 5898 5897
5916 5917 5918 5918 5919 5920 5921 5920 5920 5920 5921 5921 5921 5921 5920 5920 5920 5920 5919 5918 5918 5917 5916 5915 5914 5913 5912 5911 5910 5909 5908 5908 5907 5907 5906 5905 5905 5904 5903 5903 5902 5901 5900 5899 5898 5898 5897 5896 5895
5914 5915 5916 5917 5918 5919 5920 5920 5920 5920 5921 5921 5921 5920 5920 5920 5920 5919 5918 5918 5917 5916 5915 5914 5913 5912 5911 5910 5909 5908 5907 5906 5906 5905 5904 5904 5903 5902 5902 5901 5900 5900 5899 5898 5897 5896 5895 5894 5893
5911 5913 5914 5915 5917 5918 5919 5920 5920 5920 5920 5921 5920 5920 5920 5919 5919 5918 5918 5917 5916 5915 5914 5913 5912 5911 5910 5909 5908 5907 5906 5905 5904 5903 5903 5902 5901 5900 5900 5899 5898 5898 5897 5896 5895 5894 5893 5892 5891
5909 5911 5912 5914 5916 5917 5918 5918 5919 5919 5920 5920 5919 5919 5919 5919 5918 5917 5916 5915 5914 5913 5912 5911 5910 5909 5908 5907 5906 5905 5904 5903 5902 5901 5901 5900 5899 5898 5897 5896 5895 5895 5894 5893 5892 5891 5890 5889 5889
5906 5908 5909 5912 5914 5916 5916 5917 5917 5917 5918 5918 5918 5918 5918 5918 5917 5916 5914 5913 5912 5911 5910 5908 5907 5906 5905 5904 5903 5902 5901 5901 5900 5899 5898 5897 5896 5895 5894 5893 5892 5891 5890 5889 5889 5888 5887 5886 5885
5903 5905 5907 5909 5911 5912 5913 5914 5914 5914 5915 5916 5916 5916 5916 5916 5915 5914 5912 5910 5909 5907 5906 5904 5903 5902 5901 5900 5899 5898 5897 5896 5895 5895 5894 5893 5891 5890 5889 5888 5888 5887 5886 5885 5884 5883 5882 5882 5881
5902 5902 5904 5907 5908 5909 5910 5910 5911 5911 5912 5913 5913 5913 5913 5913 5912 5911 5909 5907 5905 5903 5901 5900 5898 5897 5896 5895 5894 5893 5892 5891 5890 5889 5888 5887 5886 5885 5884 5883 5882 5881 5880 5879 5878 5878 5877 5876 5876
5899 5901 5902 5905 5906 5907 5907 5907 5908 5908 5908 5909 5909 5910 5909 5909 5908 5907 5905 5903 5901 5899 5897 5895 5893 5891 5890 5888 5887 5887 5886 5885 5884 5882 5881 5880 5879 5878 5877 5877 5876 5874 5873 5872 5871 5871 5870 5869 5869
5897 5899 5900 5901 5902 5903 5904 5905 5905 5905 5905 5906 5906 5906 5905 5904 5903 5901 5900 5898 5896 5894 5892 5889 5887 5885 5883 5882 5880 5879 5878 5877 5876 5875 5873 5872 5871 5870 5869 5869 5868 5867 5865 5864 5863 5862 5861 5860 5859
5893 5895 5896 5897 5897 5899 5901 5902 5901 5902 5902 5902 5902 5901 5900 5899 5897 5896 5894 5892 5890 5888 5886 5884 5882 5880 5877 5876 5874 5872 5870 5868 5866 5865 5864 5863 5862 5861 5860 5859 5859 5858 5856 5855 5854 5853 5851 5850 5849
5887 5890 5891 5892 5893 5895 5898 5898 5897 5897 5897 5897 5897 5896 5894 5893 5891 5890 5888 5886 5884 5882 5880 5878 5876 5874 5871 5870 5868 5866 5864 5861 5858 5856 5855 5854 5852 5851 5850 5850 5849 5848 5847 5846 5845 5844 5842 5841 5841
5882 5884 5886 5887 5889 5891 5892 5892 5892 5892 5892 5891 5891 5890 5888 5887 5885 5884 5882 5880 5879 5876 5874 5872 5870 5867 5865 5864 5862 5859 5857 5854 5851 5849 5847 5845 5843 5841 5841 5840 5839 5838 5838 5837 5836 5835 5833 5832 5832
5876 5878 5880 5882 5883 5884 5885 5885 5886 5886 5886 5885 5885 5884 5882 5881 5880 5878 5877 5875 5873 5870 5868 5866 5863 5861 5860 5858 5856 5853 5850 5847 5845 5842 5840 5837 5835 5833 5832 5832 5831 5830 5829 5828 5827 5826 5824 5823 5822
5871 5872 5874 5876 5877 5878 5878 5878 5879 5879 5879 5879 5878 5878 5877 5876 5875 5873 5871 5870 5867 5865 5862 5860 5857 5855 5853 5851 5849 5846 5844 5841 5838 5835 5832 5830 5828 5826 5824 5823 5822 5821 5820 5819 5818 5817 5816 5815 5813
5866 5867 5869 5870 5870 5871 5871 5872 5872 5872 5872 5872 5872 5872 5872 5871 5869 5868 5866 5864 5862 5859 5856 5853 5851 5849 5846 5844 5841 5839 5836 5834 5830 5827 5824 5821 5819 5817 5815 5814 5812 5811 5810 5809 5809 5807 5806 5806 5804
5862 5863 5864 5865 5865 5865 5866 5867 5866 5866 5866 5866 5866 5866 5866 5865 5863 5862 5860 5858 5855 5853 5850 5847 5844 5842 5839 5836 5834 5831 5828 5825 5822 5819 5816 5813 5810 5808 5806 5804 5802 5801 5800 5799 5798 5797 5797 5797 5796
5859 5860 5860 5860 5861 5861 5862 5861 5862 5862 5861 5861 5860 5860 5860 5859 5857 5856 5854 5852 5849 5846 5844 5841 5839 5836 5833 5830 5827 5824 5820 5817 5814 5810 5807 5803 5800 5798 5796 5794 5792 5791 5789 5789 5788 5788 5787 5787 5787
5856 5857 5857 5857 5857 5857 5856 5856 5857 5857 5856 5855 5855 5854 5854 5853 5851 5850 5848 5846 5843 5840 5838 5835 5833 5830 5827 5825 5822 5818 5814 5810 5806 5802 5798 5794 5790 5787 5785 5783 5782 5781 5780 5779 5779 5778 5778 5778 5778
5854 5854 5853 5853 5853 5852 5851 5852 5852 5851 5851 5850 5850 5849 5848 5847 5846 5844 5842 5840 5837 5835 5832 5829 5827 5825 5822 5819 5816 5812 5808 5804 5799 5795 5790 5785 5780 5777 5774 5772 5771 5770 5769 5768 5768 5768 5768 5768 5768
5852 5852 5851 5850 5849 5848 5847 5847 5848 5846 5846 5846 5845 5844 5843 5842 5841 5839 5837 5834 5831 5829 5826 5824 5821 5819 5816 5812 5809 5805 5801 5797 5792 5787 5782 5777 5772 5767 5764 5761 5759 5758 5757 5757 5757 5757 5757 5757 5757
5849 5849 5848 5847 5846 5845 5844 5843 5844 5842 5842 5841 5840 5839 5838 5837 5835 5833 5831 5828 5825 5822 5820 5817 5815 5812 5808 5804 5801 5797 5793 5789 5784 5779 5774 5769 5764 5759 5755 5751 5749 5746 5745 5745 5745 5745 5745 5745 5746
5846 5846 5845 5844 5843 5842 5841 5840 5839 5838 5837 5836 5835 5834 5832 5831 5829 5826 5824 5821 5818 5815 5812 5809 5806 5803 5799 5796 5792 5788 5784 5780 5776 5771 5766 5761 5756 5751 5747 5743 5739 5736 5734 5733 5733 5733 5733 5733 5733
5844 5843 5842 5840 5839 5838 5837 5836 5836 5834 5833 5831 5829 5827 5826 5823 5821 5818 5815 5812 5808 5805 5802 5799 5796 5793 5790 5786 5783 5779 5776 5772 5767 5763 5758 5753 5748 5743 5739 5734 5731 5727 5725 5723 5721 5721 5721 5721 5721
5841 5840 5838 5837 5835 5833 5831 5833 5831 5829 5827 5825 5822 5820 5817 5815 5812 5808 5805 5802 5798 5795 5792 5789 5786 5783 5780 5777 5774 5770 5766 5762 5759 5754 5750 5745 5741 5736 5731 5726 5722 5719 5715 5713 5711 5710 5710 5709 5709
5837 5836 5834 5833 5831 5828 5826 5827 5824 5822 5819 5817 5814 5811 5808 5805 5801 5798 5794 5791 5787 5784 5781 5778 5775 5772 5769 5766 5763 5760 5756 5753 5749 5746 5741 5737 5733 5728 5723 5719 5715 5711 5708 5705 5702 5701 5700 5699 5699